Date,TemperatureHighF,TemperatureAvgF,TemperatureLowF,DewpointHighF,DewpointAvgF,DewpointLowF,HumidityHigh,HumidityAvg,HumidityLow,PressureMaxIn,PressureMinIn,WindSpeedMaxMPH,WindSpeedAvgMPH,GustSpeedMaxMPH,PrecipitationSumIn
2014-1-1,66.2,56.9,49.3,32.9,24.1,16.4,38,28,21,30.20,30.12,9,0,9,0.00
2014-1-2,63.9,56.7,50.6,34.1,30.0,25.5,50,36,29,30.17,30.05,9,1,9,0.00
2014-1-3,66.7,55.9,49.6,36.3,33.4,29.8,57,43,29,30.06,29.94,4,0,4,0.00
2014-1-4,63.9,57.0,50.0,35.5,19.7,-1.7,56,29,8,30.08,29.96,13,2,15,0.00
2014-1-5,63.0,56.3,51.0,8.2,2.1,-4.5,17,11,8,30.20,30.07,17,2,18,0.00
2014-1-6,58.7,53.3,47.5,19.6,13.1,5.7,29,20,14,30.27,30.16,6,0,6,0.00
2014-1-7,57.3,50.1,45.1,44.2,26.6,14.9,80,42,27,30.20,30.11,6,1,6,0.00
2014-1-8,54.7,47.9,42.1,44.9,42.1,36.2,94,81,50,30.21,30.12,7,1,7,0.00
2014-1-9,55.9,47.2,41.2,45.8,40.4,33.6,97,79,45,30.25,30.16,12,1,14,0.00
2014-1-10,59.7,49.1,40.5,43.4,40.5,36.1,92,74,49,30.30,30.18,7,0,7,0.00
2014-1-11,47.2,45.0,40.1,46.6,42.6,38.1,98,91,82,30.27,30.12,10,1,10,0.00
2014-1-12,53.9,46.5,36.9,38.7,33.3,27.3,94,63,36,30.42,30.26,14,1,14,0.00
2014-1-13,64.9,56.9,51.1,33.4,28.7,16.4,47,35,19,30.46,30.36,17,2,19,0.00
2014-1-14,74.7,64.7,57.3,16.8,9.0,-4.2,19,12,6,30.45,30.31,12,2,14,0.00
2014-1-15,74.7,67.7,61.2,11.9,5.9,0.9,12,9,7,30.31,30.19,16,2,17,0.00
2014-1-16,69.2,62.4,61.9,6.9,6.6,5.3,11,11,8,30.20,30.16,6,2,6,0.00
2014-1-17,61.9,61.9,61.9,6.7,6.7,6.7,11,11,11,30.16,30.16,2,2,6,0.00
2014-1-18,61.9,61.9,61.9,6.7,6.7,6.7,11,11,11,30.16,30.16,2,2,6,0.00
2014-1-19,64.2,59.6,51.4,25.1,12.0,6.7,33,17,11,30.16,30.06,2,1,6,0.00
2014-1-20,67.3,58.1,52.6,27.8,20.2,14.5,29,23,13,30.23,30.11,10,1,10,0.00
2014-1-21,68.2,58.6,52.8,19.8,14.2,10.3,24,18,12,30.25,30.17,9,1,9,0.00
2014-1-22,71.5,60.5,52.0,25.4,16.9,10.4,28,19,11,30.17,29.90,10,1,11,0.00
2014-1-23,64.3,58.0,52.3,26.2,17.9,13.2,35,21,16,30.02,29.85,21,3,21,0.00
2014-1-24,67.7,57.4,50.6,27.0,23.6,19.1,38,28,16,30.26,30.02,9,1,9,0.00
2014-1-25,71.7,59.4,51.6,31.0,25.3,21.3,38,28,17,30.25,30.11,8,0,9,0.00
2014-1-26,67.6,57.0,47.0,34.2,28.4,23.2,58,35,21,30.12,30.02,8,0,8,0.00
2014-1-27,60.6,53.9,48.1,42.3,34.6,27.8,71,49,33,30.17,30.03,6,1,6,0.00
2014-1-28,61.2,55.0,50.3,53.1,45.8,38.3,96,72,58,30.24,30.15,7,1,7,0.33
2014-1-29,54.2,51.5,46.6,53.3,51.0,46.3,99,98,96,30.17,29.96,9,1,9,0.10
2014-1-30,55.6,47.6,43.4,48.0,41.5,30.2,99,81,44,29.96,29.82,8,1,9,0.03
2014-1-31,55.4,45.4,36.7,37.2,27.9,13.7,86,54,19,30.07,29.89,14,1,14,0.00
2014-2-1,52.7,45.4,36.1,33.2,25.6,20.3,85,48,29,30.15,30.03,7,1,7,0.00
2014-2-2,39.2,35.2,32.2,36.2,33.7,30.5,98,95,80,30.04,29.89,11,0,11,0.60
2014-2-3,48.9,38.9,32.1,40.6,35.0,31.5,99,87,62,30.09,30.00,5,0,5,0.10
2014-2-4,48.9,40.1,31.8,36.3,31.3,27.6,95,72,56,30.17,30.07,7,1,8,0.00
2014-2-5,47.4,39.5,30.3,37.0,32.0,27.8,97,75,58,30.19,30.07,6,1,6,0.30
2014-2-6,42.9,39.9,37.1,42.4,39.3,36.3,99,98,97,30.07,29.93,5,0,6,0.61
2014-2-9,52.3,51.5,50.6,52.3,51.5,50.6,100,100,100,30.07,30.01,7,3,7,1.40
2014-2-10,55.7,50.4,45.6,54.4,50.2,45.6,100,99,94,30.27,30.07,6,1,7,0.02
2014-2-11,57.0,48.9,41.9,52.1,47.0,41.9,100,94,77,30.24,30.16,6,0,6,0.01
2014-2-12,54.4,49.5,44.8,51.2,45.9,40.8,99,88,64,30.25,30.17,8,2,8,0.00
2014-2-13,62.3,55.7,50.9,57.5,54.0,50.4,99,94,82,30.22,30.09,6,1,8,0.00
2014-2-14,56.9,52.4,49.7,54.2,51.6,49.7,100,97,87,30.15,30.03,9,2,9,0.01
2014-2-15,50.8,49.7,48.4,50.5,49.7,48.4,100,100,99,30.03,29.94,12,1,13,0.14
2014-2-16,56.8,46.6,38.2,48.4,38.5,29.0,100,77,35,30.22,29.99,8,1,9,0.01
2014-2-17,56.7,46.2,38.5,42.6,38.2,33.8,91,74,52,30.18,30.09,3,1,7,0.00
2014-2-18,58.1,50.5,42.9,46.0,41.3,36.1,87,71,54,30.20,30.07,7,1,8,0.00
2014-2-19,59.6,50.4,44.3,47.7,38.5,23.8,97,67,28,30.20,30.05,11,1,11,0.00
2014-2-20,64.1,52.4,44.1,41.5,36.3,29.8,77,56,33,30.22,30.12,10,1,10,0.00
2014-2-21,66.0,55.6,48.0,41.6,37.6,33.9,72,52,35,30.12,29.97,7,1,7,0.00
2014-2-22,65.8,55.0,47.2,44.5,39.0,32.4,78,56,34,30.00,29.91,7,1,7,0.00
2014-2-23,67.3,55.5,46.1,46.3,42.4,38.5,81,63,40,30.00,29.94,5,1,5,0.00
2014-2-24,71.6,57.0,47.7,44.8,41.0,36.1,74,57,30,30.00,29.91,4,0,4,0.00
2014-2-25,64.5,51.6,45.3,47.8,43.1,40.1,95,74,45,29.94,29.88,5,0,5,0.00
2014-2-26,50.7,47.6,45.4,50.4,46.7,43.1,99,97,89,29.93,29.64,16,2,16,1.49
2014-2-27,54.2,49.1,46.3,49.5,46.7,44.4,99,92,72,29.87,29.56,9,2,9,0.06
2014-2-28,50.9,47.6,45.8,50.4,46.8,44.3,99,97,81,29.57,29.36,15,1,18,1.79
2014-3-1,56.6,49.5,45.5,49.1,46.6,44.6,99,90,72,29.83,29.50,15,1,15,0.22
2014-3-2,50.9,48.1,45.1,50.6,47.6,44.6,99,98,95,30.15,29.83,6,0,7,0.09
2014-3-3,49.8,47.7,46.3,49.5,47.6,46.0,100,99,98,30.15,30.03,6,1,6,0.30
2014-3-4,55.5,50.1,46.3,52.3,49.2,46.3,100,97,86,30.14,30.06,5,0,7,0.04
2014-3-5,57.6,52.9,50.4,55.2,52.2,50.4,100,98,89,30.10,29.94,8,1,9,0.55
2014-3-6,56.0,49.5,41.1,52.8,48.0,40.6,100,95,76,30.18,30.00,8,2,12,0.04
2014-3-7,64.1,52.3,40.8,48.0,42.7,36.1,99,71,42,30.18,30.10,12,1,13,0.00
2014-3-8,68.0,57.8,47.6,50.1,42.4,35.6,83,58,39,30.21,30.10,4,0,4,0.00
2014-3-9,66.1,58.3,53.2,52.8,48.1,38.5,82,69,52,30.19,30.05,7,1,7,0.00
2014-3-10,64.1,53.4,43.7,49.4,41.1,31.8,98,67,35,30.22,30.05,16,1,16,0.04
2014-3-11,63.3,54.5,46.2,33.1,24.3,16.5,51,32,22,30.21,30.05,24,4,25,0.00
2014-3-12,66.4,57.7,50.6,26.8,21.1,14.4,32,24,17,30.14,30.03,15,3,20,0.00
2014-3-13,72.7,61.6,51.1,37.0,26.6,18.1,55,27,17,30.06,29.94,10,1,10,0.00
2014-3-14,71.5,57.6,43.6,49.9,39.6,31.8,77,53,28,30.22,30.00,8,1,8,0.00
2014-3-15,75.7,64.2,55.8,44.7,39.1,31.0,65,42,24,30.30,30.22,8,1,8,0.00
2014-3-16,75.1,66.1,48.7,42.9,36.1,19.4,67,34,14,30.26,30.12,11,3,11,0.00
2014-3-17,64.3,52.6,44.1,43.9,34.4,21.7,84,55,25,30.14,29.98,17,2,17,0.00
2014-3-18,66.7,55.3,48.3,29.7,22.3,16.6,46,29,16,29.99,29.90,20,2,20,0.00
2014-3-19,68.9,58.3,49.3,39.2,27.3,18.8,54,31,22,30.08,29.96,9,1,9,0.00
2014-3-20,71.0,57.2,50.4,41.2,32.5,22.8,54,40,25,30.04,29.91,7,1,7,0.00
2014-3-21,67.1,55.8,44.8,46.2,37.4,26.3,80,51,31,29.94,29.89,9,1,9,0.00
2014-3-22,67.5,56.7,42.2,44.9,36.2,25.9,83,48,26,30.08,29.93,9,2,9,0.00
2014-3-23,72.3,56.4,41.0,44.4,39.9,36.1,83,57,30,30.15,30.06,8,1,8,0.00
2014-3-24,72.3,60.4,50.4,41.6,33.3,13.9,63,39,17,30.13,29.98,8,1,8,0.00
2014-3-25,54.6,48.4,42.2,48.0,35.6,19.0,85,64,30,29.98,29.82,9,2,9,0.10
2014-3-26,50.3,45.4,42.3,46.7,36.7,29.6,88,72,57,29.94,29.78,10,2,10,0.69
2014-3-27,51.7,46.5,42.2,47.0,38.5,30.0,89,74,58,30.13,29.95,9,1,10,0.05
2014-3-28,52.9,49.3,46.8,48.4,39.4,33.1,89,69,58,30.18,30.09,7,1,7,0.08
2014-3-29,50.4,47.8,43.4,44.5,39.2,35.2,90,73,58,30.09,29.97,11,2,11,1.16
2014-3-30,54.1,44.5,37.2,45.3,37.5,26.1,90,77,59,30.11,30.00,11,2,12,0.00
2014-3-31,43.3,40.8,38.3,37.5,31.0,26.4,87,68,60,30.06,29.80,11,1,11,0.88
2014-4-1,43.9,39.3,36.7,38.4,29.9,26.7,88,69,62,29.95,29.82,9,0,10,1.16
2014-4-2,55.8,44.2,37.0,46.1,36.3,26.8,91,74,60,30.10,29.88,8,1,8,0.00
2014-4-3,59.4,46.6,40.3,46.7,38.0,28.0,89,72,51,30.12,30.02,6,1,6,0.00
2014-4-4,53.7,44.7,41.2,47.4,36.7,28.7,89,74,59,30.06,29.97,7,0,8,0.29
2014-4-5,63.7,50.8,39.3,49.2,39.6,27.1,89,66,53,30.19,30.05,8,1,9,0.00
2014-4-6,73.3,60.8,49.0,50.7,44.8,41.4,83,58,34,30.23,30.10,11,1,12,0.00
2014-4-7,79.8,67.1,58.2,54.9,45.8,39.2,78,49,25,30.14,30.05,10,1,11,0.00
2014-4-8,79.8,66.3,55.7,53.9,48.8,40.3,82,56,28,30.09,29.99,5,1,5,0.00
2014-4-9,74.5,62.2,53.2,55.1,46.1,33.1,85,58,28,30.03,29.95,7,1,7,0.00
2014-4-10,79.8,64.5,53.8,53.8,41.2,24.9,63,45,16,30.00,29.87,8,1,9,0.00
2014-4-11,73.8,60.7,47.0,57.1,49.8,38.8,84,68,46,29.90,29.79,5,1,5,0.00
2014-4-12,65.5,50.3,43.7,53.4,39.3,29.9,88,66,55,29.90,29.82,11,2,11,0.01
2014-4-13,77.2,59.4,44.4,53.1,38.0,17.0,89,52,11,30.03,29.90,13,1,16,0.01
2014-4-14,74.5,65.1,58.5,53.4,39.1,24.1,67,40,21,30.07,29.98,8,1,8,0.00
2014-4-15,74.7,60.7,47.2,57.1,48.1,38.2,85,65,39,29.99,29.86,5,0,5,0.00
2014-4-16,76.5,64.1,52.6,50.0,44.7,36.8,86,52,27,29.89,29.78,12,1,12,0.00
2014-4-17,73.8,62.2,52.1,57.0,47.7,41.1,74,60,41,29.82,29.75,12,2,12,0.00
2014-4-18,71.0,60.3,48.7,50.6,44.1,36.6,82,56,33,29.89,29.81,8,2,8,0.00
2014-4-19,68.2,54.9,45.7,50.3,42.1,28.1,87,65,30,30.10,29.88,11,2,11,0.00
2014-4-20,76.6,62.9,50.4,47.4,41.9,35.3,86,49,24,30.14,30.02,7,1,7,0.00
2014-4-21,66.9,55.8,46.7,43.2,35.1,23.6,86,48,20,30.03,29.90,13,3,13,0.00
2014-4-22,58.4,48.5,41.3,43.6,36.1,30.3,87,65,37,30.10,29.89,12,3,13,0.00
2014-4-23,64.1,50.4,36.7,45.2,38.0,31.3,85,65,39,30.14,30.07,8,2,9,0.00
2014-4-24,63.7,52.6,46.6,51.2,44.9,34.3,86,76,53,30.09,29.94,11,3,13,0.00
2014-4-25,49.9,45.6,39.4,43.8,36.3,25.6,86,70,54,29.94,29.74,9,2,9,0.35
2014-4-26,55.8,44.6,36.2,44.3,34.1,24.2,88,67,40,30.07,29.82,10,2,10,0.01
2014-4-27,59.9,49.5,43.0,48.6,39.5,28.8,86,69,50,30.11,30.01,10,2,10,0.01
2014-4-28,69.2,56.9,44.0,50.2,44.0,40.1,86,64,36,30.22,30.11,6,1,7,0.00
2014-4-29,82.5,70.4,57.0,43.9,37.4,31.3,53,32,18,30.20,30.05,14,2,15,0.00
2014-4-30,83.0,72.7,64.3,45.9,34.9,25.8,47,26,17,30.07,29.99,13,1,13,0.00
2014-5-1,85.8,72.0,58.3,54.1,38.8,26.9,53,32,14,30.08,30.00,11,1,11,0.00
2014-5-2,79.3,66.9,57.2,47.1,35.4,22.6,68,33,21,30.05,29.93,9,2,10,0.00
2014-5-3,68.3,55.4,46.1,50.3,43.6,30.5,86,66,41,29.97,29.90,12,3,12,0.00
2014-5-4,63.0,53.2,45.4,50.1,45.2,41.2,85,75,57,30.02,29.95,10,2,10,0.00
2014-5-5,61.6,51.7,44.4,45.7,41.9,38.6,85,71,48,30.00,29.89,12,3,12,0.00
2014-5-6,68.5,53.8,38.9,44.5,38.2,26.1,85,60,21,29.92,29.84,13,1,15,0.00
2014-5-7,67.9,53.1,43.6,47.3,42.2,37.1,84,68,45,29.95,29.84,8,1,8,0.00
2014-5-8,57.0,51.7,45.7,51.4,41.9,34.9,83,70,49,30.06,29.93,11,3,11,0.08
2014-5-9,64.9,54.3,46.1,51.3,41.3,34.7,88,63,39,30.13,30.05,10,3,10,0.01
2014-5-10,63.4,52.6,39.7,52.1,39.1,32.8,100,63,35,30.11,30.02,10,1,10,0.00
2014-5-11,74.0,62.1,51.4,40.1,30.6,11.1,52,33,9,30.12,30.01,16,2,16,0.00
2014-5-12,81.5,68.9,57.1,41.3,35.6,29.7,51,31,16,30.10,30.02,12,1,12,0.00
2014-5-13,87.4,74.2,61.9,47.8,35.9,28.4,39,26,14,30.12,30.05,11,2,11,0.00
2014-5-14,88.3,75.8,62.6,48.4,38.8,22.1,45,28,14,30.10,30.02,9,2,10,0.00
2014-5-15,85.3,73.4,62.0,40.9,29.4,11.7,39,21,8,30.07,30.00,8,2,8,0.00
2014-5-16,81.3,66.7,52.4,48.8,39.9,30.5,59,38,24,30.02,29.91,10,2,10,0.00
2014-5-17,76.0,61.1,49.7,51.0,44.3,37.9,83,57,28,29.92,29.85,13,2,13,0.00
2014-5-18,69.0,58.1,48.6,50.2,43.5,35.5,81,60,30,29.93,29.87,13,3,13,0.00
2014-5-19,66.3,53.8,46.3,48.4,44.3,39.3,85,72,41,29.91,29.84,14,2,14,0.00
2014-5-20,68.3,57.1,44.8,49.8,45.1,39.0,85,66,46,29.98,29.89,10,1,10,0.00
2014-5-21,76.4,61.9,49.5,55.2,49.2,44.6,84,65,40,29.93,29.86,10,1,10,0.00
2014-5-22,81.5,63.8,46.8,56.5,47.1,31.1,84,57,26,29.97,29.86,13,1,13,0.00
2014-5-23,79.7,67.2,54.0,60.0,53.8,48.6,83,64,46,29.97,29.87,10,1,10,0.00
2014-5-24,83.3,68.4,57.1,59.8,52.9,47.9,74,59,42,29.94,29.85,8,1,8,0.00
2014-5-25,86.7,76.1,57.6,51.9,47.3,44.5,72,39,25,29.93,29.87,8,2,8,0.00
2014-5-26,86.4,86.4,86.4,46.4,46.4,46.4,25,25,25,29.88,29.88,4,4,7,0.00
2014-5-27,86.4,86.4,86.4,46.4,46.4,46.4,25,25,25,29.88,29.88,4,4,7,0.00
2014-5-28,86.4,86.4,86.4,46.4,46.4,46.4,25,25,25,29.88,29.88,4,4,7,0.00
2014-5-29,86.4,81.4,56.8,46.4,43.7,30.0,48,27,22,29.88,29.84,6,3,7,0.00
2014-5-30,75.5,58.0,45.2,51.8,45.2,36.5,83,64,42,29.89,29.82,5,1,5,0.00
2014-5-31,79.8,61.1,42.0,52.5,42.0,27.9,83,52,29,29.94,29.88,10,1,10,0.00
2014-6-1,86.0,69.6,56.8,55.0,44.5,34.1,61,42,23,29.89,29.75,8,1,8,0.00
2014-6-2,73.3,56.2,45.3,55.3,42.9,29.2,84,62,50,29.86,29.74,5,1,5,0.00
2014-6-3,77.7,59.2,45.1,57.8,44.2,30.1,86,58,40,29.92,29.84,6,1,7,0.00
2014-6-4,84.2,72.5,57.2,55.9,48.0,41.0,82,44,26,29.85,29.77,9,2,9,0.00
2014-6-5,83.8,71.6,57.8,58.1,48.7,39.7,75,46,25,29.78,29.72,10,2,10,0.00
2014-6-6,80.3,65.4,52.4,57.8,52.7,47.3,84,66,40,29.78,29.72,8,1,11,0.00
2014-6-7,85.2,72.7,55.2,57.7,52.4,44.6,84,52,28,29.78,29.73,13,1,13,0.00
2014-6-8,98.7,84.3,69.6,52.8,45.8,38.1,53,27,13,29.78,29.68,11,2,12,0.00
2014-6-9,95.2,83.0,70.6,53.7,46.7,39.8,52,29,17,29.70,29.61,10,2,10,0.00
2014-6-10,85.5,74.4,52.2,59.6,51.7,39.8,83,47,28,29.72,29.63,11,2,11,0.00
2014-6-11,66.2,55.3,48.9,55.7,44.0,33.4,86,66,51,29.85,29.71,12,3,12,0.02
2014-6-12,75.0,58.3,47.1,52.6,41.6,32.7,87,56,28,29.94,29.83,11,3,11,0.02
2014-6-13,79.3,64.5,47.6,50.4,45.0,40.7,83,53,28,29.95,29.88,8,1,8,0.00
2014-6-14,77.8,66.3,57.6,47.2,43.5,38.4,67,46,26,29.91,29.75,7,1,7,0.00
2014-6-15,77.3,62.1,48.1,54.4,48.1,42.6,83,62,42,29.76,29.70,9,1,9,0.00
2014-6-16,74.5,58.8,47.7,48.2,44.3,40.6,84,61,34,29.83,29.72,8,2,10,0.00
2014-6-17,76.8,63.1,45.7,42.1,36.8,25.0,81,42,16,29.94,29.82,11,1,11,0.00
2014-6-18,83.5,71.4,60.6,41.9,37.1,33.4,48,30,20,29.92,29.86,10,2,10,0.00
2014-6-19,88.3,72.2,55.7,52.8,44.6,34.6,59,39,17,29.93,29.86,7,1,7,0.00
2014-6-20,85.7,71.9,57.4,49.0,43.1,31.9,66,38,16,29.93,29.85,11,2,11,0.00
2014-6-21,81.5,67.2,54.1,53.2,46.8,38.0,66,49,27,29.85,29.79,8,1,8,0.00
2014-6-22,58.9,53.5,51.6,47.9,46.9,45.8,83,78,67,29.82,29.81,2,0,2,0.00
2014-6-23,85.5,84.2,82.8,55.9,49.6,46.3,38,30,27,29.89,29.85,12,4,12,0.00
2014-6-24,62.6,62.3,62.0,51.3,51.2,50.8,68,67,66,29.88,29.88,5,1,5,0.00
2014-6-25,76.4,63.1,55.7,58.4,53.4,50.0,83,71,51,29.90,29.85,11,3,11,0.00
2014-6-26,72.4,61.1,53.5,55.4,51.6,46.6,84,72,50,29.93,29.88,13,3,13,0.00
2014-6-27,77.8,64.3,53.2,60.2,53.7,42.9,83,69,52,29.94,29.87,11,2,11,0.00
2014-6-28,83.1,67.4,50.2,57.5,49.6,33.7,83,55,33,29.91,29.84,7,2,8,0.00
2014-6-29,93.3,75.7,57.1,55.3,50.3,44.5,67,43,24,29.90,29.79,9,1,9,0.00
2014-6-30,96.7,81.3,61.7,54.2,48.9,39.8,73,35,16,29.80,29.70,10,2,10,0.00
2014-7-1,82.5,67.2,55.3,59.4,53.6,46.2,82,63,43,29.78,29.68,8,2,8,0.00
2014-7-2,84.5,64.7,50.0,60.8,51.3,33.7,82,63,43,29.84,29.76,8,1,10,0.00
2014-7-3,86.3,67.7,53.9,61.1,54.6,41.7,82,65,41,29.88,29.82,7,1,7,0.00
2014-7-4,87.3,70.3,57.4,59.1,54.1,49.4,80,58,36,29.92,29.83,7,1,7,0.00
2014-7-5,88.5,72.7,54.7,54.5,44.7,27.1,75,41,12,30.02,29.92,6,1,11,0.00
2014-7-6,92.0,78.2,64.2,54.3,43.6,31.5,46,31,14,29.98,29.86,9,1,9,0.00
2014-7-7,91.8,69.9,-40.8,59.2,41.2,-81.4,67,37,7,29.85,29.76,5,1,5,0.00
2014-7-8,90.6,71.9,58.2,59.6,55.6,50.7,80,59,31,29.85,29.76,4,0,5,0.00
2014-7-9,83.1,64.8,51.1,69.8,52.4,32.9,100,69,44,29.90,29.82,8,1,8,0.00
2014-7-10,74.7,60.2,50.6,58.7,45.7,33.9,84,59,50,29.91,29.84,12,2,12,0.00
2014-7-14,102.0,79.4,61.7,60.0,56.1,52.9,75,49,21,29.85,29.78,7,2,7,0.00
2014-7-15,78.1,69.0,59.0,60.0,53.2,43.1,77,58,36,29.95,29.82,13,3,13,0.00
2014-7-16,64.9,61.1,58.4,56.2,54.5,51.3,82,79,62,29.97,29.91,7,2,7,0.00
2014-7-17,74.0,64.9,54.0,59.5,55.0,43.8,83,71,58,29.98,29.91,10,3,10,0.00
2014-7-18,75.3,61.2,52.3,59.9,49.2,36.0,85,65,53,30.00,29.91,10,2,10,0.00
2014-7-19,83.7,67.8,55.0,59.3,55.2,49.9,84,66,41,29.93,29.86,10,2,10,0.00
2014-7-20,68.5,61.4,56.7,56.6,54.1,51.3,84,77,64,29.95,29.84,11,2,11,0.00
2014-7-21,71.3,61.6,55.3,59.5,52.1,38.9,83,72,54,30.04,29.93,10,3,11,0.00
2014-7-22,77.0,61.9,53.7,59.1,50.1,37.1,85,66,51,30.07,30.00,11,2,11,0.00
2014-7-23,78.5,65.1,54.7,60.2,54.0,44.8,84,68,47,30.11,30.00,9,2,9,0.00
2014-7-24,90.5,73.9,58.2,56.0,52.9,48.2,83,52,27,30.01,29.81,8,1,9,0.00
2014-7-25,97.3,80.4,66.6,52.8,45.2,31.9,60,32,13,29.85,29.78,9,1,9,0.00
2014-7-26,98.2,80.4,66.1,55.6,46.6,35.6,87,34,15,29.88,29.81,6,1,6,0.00
2014-7-27,98.2,78.0,61.6,57.7,50.8,37.2,77,42,17,29.94,29.85,7,1,7,0.00
2014-7-28,87.2,73.5,62.3,59.4,49.9,40.3,70,45,24,29.98,29.89,10,2,10,0.00
2014-7-29,91.3,75.9,59.8,57.6,50.0,-58.5,68,43,18,30.00,29.92,9,2,9,0.00
2014-7-30,92.7,79.3,67.1,60.2,53.9,44.7,57,43,28,29.93,29.86,10,1,10,0.00
2014-7-31,95.3,81.1,67.0,57.1,49.9,35.6,56,35,16,29.89,29.81,9,2,9,0.00
2014-8-1,98.2,82.4,66.5,54.2,44.0,28.4,59,28,14,29.85,29.79,9,1,10,0.00
2014-8-2,86.4,70.2,55.6,59.3,53.9,47.2,81,58,39,29.86,29.78,7,1,8,0.00
2014-8-3,80.8,61.7,50.5,60.0,49.1,34.5,83,64,46,29.92,29.84,5,1,5,0.00
2014-8-4,77.2,62.4,50.7,59.2,50.7,35.0,83,66,52,29.96,29.89,5,0,6,0.00
2014-8-5,73.4,66.1,55.8,62.4,57.6,39.6,82,74,55,30.04,29.94,4,0,4,0.01
2014-8-6,86.0,72.2,62.7,61.4,58.5,55.0,81,64,42,30.01,29.89,6,1,6,0.00
2014-8-7,86.8,72.2,60.4,61.9,58.3,54.5,82,64,40,29.91,29.80,9,1,9,0.00
2014-8-8,87.5,69.8,56.0,61.0,55.3,49.8,82,62,34,29.88,29.80,7,1,7,0.00
2014-8-9,80.8,64.4,51.6,58.7,52.8,42.5,82,67,46,29.90,29.82,5,1,6,0.00
2014-8-10,84.0,62.3,48.9,58.1,47.5,34.0,84,60,33,29.98,29.89,4,0,4,0.00
2014-8-11,89.2,70.0,56.0,57.1,51.7,41.0,83,55,29,29.92,29.84,5,1,6,0.00
2014-8-12,68.8,58.4,51.1,55.8,49.2,35.9,83,72,56,29.95,29.87,9,3,9,0.00
2014-8-13,77.2,62.5,51.8,56.4,48.3,36.1,85,60,48,29.98,29.89,9,2,9,0.01
2014-8-14,84.7,68.8,55.4,57.5,52.8,48.4,84,60,33,29.92,29.85,7,1,8,0.00
2014-8-15,89.3,70.3,54.0,57.6,50.1,42.1,84,53,24,29.97,29.88,6,1,6,0.00
2014-8-16,89.5,71.3,54.2,56.3,47.5,31.1,83,47,20,30.00,29.92,10,1,11,0.00
2014-8-17,86.7,70.1,52.1,56.6,47.8,38.9,73,47,28,29.97,29.84,8,1,8,0.00
2014-8-18,82.7,64.9,53.4,59.8,53.3,38.1,83,68,44,29.84,29.73,6,1,6,0.00
2014-8-19,76.3,60.1,52.2,58.7,47.3,37.3,85,63,53,29.83,29.76,10,2,10,0.00
2014-8-20,61.1,55.8,52.5,56.6,46.2,38.7,86,71,57,29.92,29.81,11,3,11,0.05
2014-8-21,82.3,66.8,49.9,61.2,52.9,37.4,86,62,46,29.96,29.87,8,1,8,0.00
2014-8-22,80.1,63.4,53.4,60.0,50.7,39.0,86,65,46,29.89,29.82,7,1,7,0.00
2014-8-23,82.5,64.9,48.7,58.9,50.2,34.7,85,60,42,29.91,29.81,7,1,7,0.00
2014-8-24,77.5,62.3,50.3,57.1,50.1,35.9,85,66,46,29.86,29.76,12,2,12,0.00
2014-8-25,74.2,58.5,50.9,57.5,47.9,36.7,86,68,53,29.92,29.78,10,2,10,0.02
2014-8-26,81.3,65.5,49.2,59.7,50.6,35.8,85,60,43,29.99,29.90,8,1,8,0.00
2014-8-27,90.9,72.9,58.0,58.7,53.1,45.8,81,53,30,30.03,29.95,9,1,9,0.00
2014-8-28,89.7,73.4,59.1,56.5,50.4,37.7,100,54,22,29.99,29.87,9,1,10,0.00
2014-8-29,83.3,71.4,58.8,60.2,53.7,47.5,79,55,35,29.89,29.82,7,1,8,0.00
2014-8-30,90.2,74.5,58.6,51.0,45.1,38.9,61,38,17,29.88,29.78,9,2,12,0.00
2014-8-31,88.5,73.2,57.9,55.7,50.2,44.8,71,46,27,29.87,29.78,8,1,8,0.00
2014-9-1,91.6,79.0,66.6,56.9,46.1,39.8,51,32,20,29.80,29.71,8,2,9,0.00
2014-9-2,82.3,69.5,54.8,60.1,53.5,42.8,83,58,33,29.76,29.68,5,1,7,0.00
2014-9-3,83.6,68.0,50.0,57.4,51.6,40.4,83,58,33,29.76,29.66,7,1,7,0.00
2014-9-4,83.3,72.0,58.2,57.2,45.2,21.8,82,44,12,29.72,29.64,9,2,12,0.00
2014-9-5,82.9,63.5,48.3,57.4,50.4,33.8,83,64,35,29.87,29.72,6,1,9,0.00
2014-9-6,85.3,66.6,53.0,55.3,50.5,34.2,83,60,19,29.92,29.82,5,1,6,0.00
2014-9-7,84.5,65.9,51.8,53.4,48.0,38.6,84,56,27,29.85,29.75,5,1,7,0.00
2014-9-8,72.5,58.2,46.6,54.3,47.2,32.6,84,68,42,29.89,29.77,8,1,9,0.00
2014-9-9,83.2,65.6,49.0,55.9,48.8,38.2,84,58,24,29.98,29.87,6,1,6,0.00
2014-9-10,94.2,78.6,67.0,49.4,42.8,34.6,49,29,14,29.92,29.79,8,1,8,0.00
2014-9-11,93.3,78.7,65.7,51.9,42.9,34.1,49,29,15,29.86,29.77,8,1,8,0.00
2014-9-12,94.2,80.2,68.4,48.9,39.4,27.8,34,24,16,29.84,29.75,7,1,8,0.00
2014-9-13,97.0,76.3,-40.3,54.1,43.1,-81.1,53,32,7,29.78,29.70,7,1,8,0.00
2014-9-14,87.5,74.9,63.9,57.7,48.9,44.3,55,41,29,29.79,29.73,7,1,9,0.00
2014-9-15,81.7,70.0,61.0,50.7,47.5,43.2,66,46,30,29.85,29.77,8,2,11,0.00
2014-9-16,83.6,65.4,55.4,51.9,48.9,44.8,79,58,29,29.88,29.77,7,1,7,0.00
2014-9-17,80.2,67.2,56.8,56.6,50.9,41.0,80,58,34,29.78,29.69,9,2,9,0.00
2014-9-18,69.9,62.1,56.4,62.6,49.2,40.0,84,63,50,29.87,29.73,6,1,8,0.18
2014-9-19,76.5,66.0,55.4,62.4,54.6,39.2,84,67,54,29.90,29.81,9,2,10,0.00
2014-9-20,76.1,66.1,56.9,60.9,55.2,49.5,83,69,41,29.90,29.81,9,2,9,0.00
2014-9-21,73.3,61.2,54.0,57.1,50.5,37.9,84,69,54,29.97,29.87,9,2,9,0.00
2014-9-22,81.6,65.3,52.0,59.4,51.2,36.8,84,62,43,30.01,29.92,8,1,9,0.00
2014-9-23,79.7,64.6,53.5,60.5,52.1,41.9,83,66,37,29.97,29.88,9,2,11,0.00
2014-9-24,70.9,61.9,56.5,61.9,50.7,41.0,85,67,54,29.93,29.83,9,2,12,0.02
2014-9-25,65.0,57.2,51.9,56.1,47.0,38.0,86,69,56,29.99,29.85,12,2,13,0.28
2014-9-26,68.2,55.8,49.1,55.3,45.5,35.6,86,69,51,29.99,29.89,6,1,6,0.24
2014-9-27,73.2,59.6,48.4,56.4,47.5,34.8,86,66,46,29.92,29.80,10,1,10,0.01
2014-9-28,70.2,59.5,50.2,57.7,49.5,36.3,84,70,56,29.95,29.78,5,0,6,0.00
2014-9-29,73.7,60.7,52.2,58.0,52.3,46.7,85,75,53,30.00,29.93,6,1,8,0.00
2014-9-30,78.8,63.2,50.4,56.6,49.8,39.1,85,64,37,29.95,29.83,10,1,10,0.00
2014-10-1,81.3,69.5,61.4,38.9,29.7,18.2,38,25,11,29.93,29.85,12,2,20,0.00
2014-10-2,84.0,72.1,64.6,33.6,27.8,22.9,30,20,12,30.03,29.92,9,1,9,0.00
2014-10-3,91.5,76.8,66.6,40.3,30.6,23.7,26,19,11,30.09,29.99,7,1,7,0.00
2014-10-4,91.3,77.0,65.6,41.6,34.3,25.3,32,22,12,30.02,29.90,5,1,6,0.00
2014-10-5,95.2,78.4,67.1,45.7,38.9,29.3,35,25,16,29.93,29.84,10,1,10,0.00
2014-10-6,92.0,78.9,67.7,49.7,44.2,40.8,41,30,19,29.89,29.80,6,1,6,0.00
2014-10-7,87.5,75.6,65.6,53.1,39.0,26.9,50,28,14,29.88,29.78,10,1,11,0.00
2014-10-8,89.5,77.0,64.2,40.4,36.0,24.9,39,24,11,29.88,29.79,9,1,10,0.00
2014-10-9,79.8,68.1,56.9,54.8,46.6,37.1,70,48,31,29.92,29.83,8,1,8,0.00
2014-10-10,79.8,68.3,55.7,54.2,47.4,41.8,71,49,31,30.01,29.92,8,1,8,0.00
2014-10-11,83.2,70.3,58.3,52.7,45.7,40.0,61,43,28,30.02,29.93,7,1,7,0.00
2014-10-12,85.3,74.8,65.5,48.9,23.2,1.5,47,19,5,29.99,29.90,15,2,16,0.00
2014-10-13,86.4,75.3,54.3,49.3,34.8,6.7,79,27,7,29.94,29.85,5,1,6,0.00
2014-10-14,58.5,54.7,50.6,52.7,47.0,38.7,83,75,54,29.87,29.78,9,3,10,0.11
2014-10-15,61.1,55.3,50.0,53.7,45.2,38.3,86,69,55,30.03,29.83,7,1,7,0.29
2014-10-16,65.5,55.6,47.6,50.8,44.8,38.8,85,69,44,30.03,29.91,5,1,5,0.00
2014-10-17,64.5,55.6,46.2,53.1,48.3,41.6,85,77,62,29.99,29.92,4,0,4,0.00
2014-10-18,72.7,62.1,53.9,57.1,53.0,42.5,84,73,55,29.99,29.86,9,1,9,0.00
2014-10-19,72.7,61.2,53.6,58.2,52.2,40.1,84,73,56,29.90,29.82,6,1,6,0.00
2014-10-20,60.9,55.3,49.2,53.6,45.2,39.7,85,69,56,30.03,29.86,15,3,18,0.02
2014-10-21,66.5,54.2,44.4,46.1,42.4,34.2,86,66,41,30.11,30.00,8,1,8,0.00
2014-10-22,69.2,57.2,47.6,54.0,47.3,41.4,84,71,50,30.07,30.00,7,1,7,0.00
2014-10-23,65.3,58.8,54.2,56.0,52.8,49.1,84,80,70,30.05,29.96,5,1,5,0.00
2014-10-24,69.8,57.9,49.6,55.5,49.8,42.6,85,75,50,29.98,29.85,7,1,10,0.00
2014-10-25,57.2,54.2,50.4,52.8,44.0,36.9,86,69,57,30.14,29.84,16,2,16,0.44
2014-10-26,63.1,52.4,42.4,46.0,40.6,31.7,88,65,43,30.18,30.05,9,1,10,0.00
2014-10-27,65.8,54.7,45.1,45.6,40.7,35.0,82,60,41,30.06,30.00,4,0,4,0.00
2014-10-28,71.4,59.0,48.6,47.6,43.2,38.1,77,57,36,30.12,30.05,7,0,7,0.00
2014-10-29,77.6,65.4,55.7,53.2,48.9,42.4,69,56,41,30.11,29.98,6,0,7,0.00
2014-10-30,71.6,62.1,54.6,53.8,49.2,39.7,83,64,43,29.98,29.82,11,1,11,0.00
2014-10-31,54.6,52.0,46.6,42.8,39.5,36.6,77,63,57,29.86,29.69,10,1,10,0.19
2014-11-1,59.2,49.1,40.4,46.4,39.9,29.6,87,71,54,30.04,29.69,8,1,8,0.00
2014-11-2,63.2,52.4,45.6,43.1,37.0,28.0,86,59,30,30.18,30.04,12,1,12,0.00
2014-11-3,63.4,55.0,47.8,42.2,37.5,32.9,75,53,38,30.25,30.16,6,1,10,0.00
2014-11-4,69.0,56.1,47.9,47.6,42.8,38.4,75,62,42,30.33,30.24,5,0,6,0.00
2014-11-5,75.3,61.5,53.8,51.9,47.5,43.3,76,61,42,30.25,30.08,10,0,10,0.00
2014-11-6,71.5,60.2,51.8,51.5,48.5,45.8,83,67,41,30.21,30.14,7,1,7,0.00
2014-11-7,62.9,56.3,51.1,49.1,46.3,43.6,77,69,57,30.21,30.10,5,0,5,0.00
2014-11-8,76.8,65.1,57.6,49.0,45.5,41.7,67,50,32,30.12,30.01,9,0,10,0.00
2014-11-9,74.5,63.4,55.4,51.8,47.8,42.8,79,58,37,30.01,29.81,6,0,6,0.00
2014-11-10,74.6,60.1,50.1,52.5,47.1,36.3,84,64,38,29.82,29.76,7,0,7,0.00
2014-11-11,53.5,50.4,49.2,48.7,42.3,36.2,87,74,59,29.96,29.80,6,1,6,0.00
2014-11-12,58.2,51.4,43.9,47.0,44.0,36.2,87,76,61,30.02,29.95,4,0,4,0.04
2014-11-13,56.3,52.1,49.1,51.3,41.2,36.4,86,67,60,30.06,29.94,5,1,6,0.19
2014-11-14,58.3,50.2,43.4,52.0,42.6,32.5,88,76,62,30.09,30.04,7,1,9,0.00
2014-11-15,59.9,50.7,43.3,48.1,42.9,32.3,87,75,61,30.22,30.08,6,1,6,0.00
2014-11-16,57.6,50.3,45.4,45.5,25.0,15.3,84,40,21,30.28,30.19,11,1,12,0.00
2014-11-17,60.2,52.2,46.2,26.4,20.3,15.1,36,29,23,30.28,30.11,8,1,8,0.00
2014-11-18,57.2,52.0,46.8,32.4,26.3,18.5,45,37,29,30.16,30.05,8,1,8,0.00
2014-11-19,51.9,48.2,44.4,37.6,35.7,28.0,68,62,41,30.14,30.01,6,0,6,0.67
2014-11-20,49.1,47.6,44.7,38.9,37.4,35.1,73,68,63,30.13,29.97,4,0,4,0.43
2014-11-21,50.4,47.0,42.6,42.8,38.2,34.9,78,71,66,30.12,30.04,4,0,4,0.03
2014-11-22,59.5,52.7,44.8,54.3,44.0,38.0,90,73,46,30.26,30.01,13,2,13,0.80
2014-11-23,58.0,49.5,42.8,43.4,37.1,31.8,85,64,40,30.34,30.24,10,1,12,0.00
2014-11-24,62.8,52.7,42.1,39.2,33.0,25.1,83,49,27,30.43,30.32,7,0,7,0.00
2014-11-25,61.7,54.0,48.4,42.0,38.1,33.2,67,55,45,30.47,30.34,7,0,7,0.00
2014-11-26,63.2,55.0,49.7,42.6,39.9,38.1,68,57,45,30.34,30.23,6,1,6,0.00
2014-11-27,63.4,50.5,48.5,45.3,42.7,40.1,82,75,50,30.15,30.04,2,0,2,0.00
2014-11-28,55.4,49.9,43.5,49.7,43.5,37.4,88,79,63,30.04,29.83,9,1,9,0.19
2014-11-29,54.7,52.2,49.7,44.3,41.9,39.9,71,68,64,29.86,29.76,3,0,3,0.57
2014-11-30,50.4,48.6,45.0,46.2,40.5,35.3,90,74,66,30.05,29.73,8,0,8,0.59
2014-12-1,56.4,52.3,48.9,53.2,44.2,38.4,89,74,65,30.15,29.96,3,0,3,0.24
2014-12-2,53.4,50.4,49.6,44.6,40.1,38.9,72,68,66,29.96,29.70,8,1,8,1.48
2014-12-3,55.7,52.9,49.7,46.7,43.6,39.4,73,71,67,29.88,29.67,15,1,15,1.82
2014-12-4,54.6,52.6,49.9,46.0,44.5,41.6,77,74,71,30.02,29.87,4,0,4,0.15
2014-12-5,55.4,54.1,51.8,48.0,46.7,44.8,79,76,74,30.05,29.96,8,0,8,1.34
2014-12-6,56.3,51.6,48.2,53.4,44.7,39.7,93,77,71,30.23,30.04,7,0,7,0.25
2014-12-7,56.2,51.8,48.7,53.6,45.9,40.3,92,80,71,30.23,30.13,4,0,4,0.01
2014-12-8,59.3,55.7,53.0,56.2,47.8,42.7,91,75,67,30.17,30.12,2,0,2,0.06
2014-12-9,56.1,53.9,48.8,46.8,44.9,40.3,75,71,69,30.20,30.07,2,0,2,0.01
2014-12-10,52.7,51.4,49.9,46.0,44.1,41.9,78,76,74,30.07,29.67,8,0,11,1.28
2014-12-11,53.4,49.0,44.0,47.0,42.6,38.0,80,79,77,29.68,29.45,15,1,15,5.21
2014-12-12,45.9,43.6,39.1,40.1,37.8,33.8,82,80,77,30.08,29.62,2,0,3,0.32
2014-12-13,47.5,42.5,38.1,44.6,38.3,33.1,94,85,77,30.24,30.09,4,0,5,0.01
2014-12-14,46.1,42.6,40.1,44.0,37.5,33.7,94,82,76,30.18,30.01,6,0,6,0.16
2014-12-15,45.7,43.7,41.9,38.6,36.8,35.1,78,76,76,30.02,29.83,8,1,8,1.64
2014-12-16,48.4,45.7,43.0,41.5,39.1,36.6,80,78,76,29.95,29.81,4,1,8,0.90
2014-12-17,47.4,44.7,43.0,45.4,39.2,36.6,94,81,77,30.08,29.90,8,1,9,0.37
2014-12-18,49.9,46.4,43.6,42.6,39.6,36.9,79,77,76,30.20,30.07,3,0,4,0.15
2014-12-19,49.1,48.1,47.1,42.7,41.7,40.3,80,78,77,30.16,30.07,6,0,6,0.96
2014-12-20,51.0,49.0,47.6,45.7,43.4,41.7,82,81,79,30.24,30.12,5,1,5,0.13
2014-12-21,56.3,53.4,50.2,50.5,48.1,44.9,85,82,80,30.31,30.23,7,2,7,0.03
2014-12-22,62.0,54.3,47.9,56.8,49.5,42.9,94,84,71,30.29,30.18,11,0,11,0.01
2014-12-23,64.8,57.1,49.5,54.9,48.1,42.7,92,73,51,30.21,30.10,9,1,12,0.00
2014-12-24,51.4,46.5,38.6,45.4,39.6,31.0,93,77,67,30.10,29.89,19,2,22,0.06
2014-12-25,49.3,43.0,36.0,32.9,28.9,25.5,85,58,42,30.17,30.08,12,1,19,0.00
2014-12-26,49.6,44.5,40.8,29.5,26.3,24.2,56,49,40,30.27,30.13,18,2,18,0.00
2014-12-27,48.5,42.5,37.4,33.7,28.2,22.9,82,58,41,30.39,30.26,11,0,11,0.00
2014-12-28,50.9,41.7,35.1,43.9,36.0,29.7,92,80,70,30.37,30.24,6,0,7,0.00
2014-12-29,44.9,38.8,33.1,40.0,34.2,27.6,92,83,74,30.24,30.10,7,0,7,0.00
2014-12-30,43.1,38.7,34.0,34.3,19.3,12.1,85,47,31,30.33,30.12,21,3,21,0.00
2014-12-31,51.8,43.8,35.9,12.6,6.0,1.7,37,22,13,30.32,30.09,17,3,21,0.00
2015-1-1,50.9,43.5,35.2,29.9,17.0,4.7,74,38,18,30.16,30.06,16,1,16,0.00
2015-1-2,48.7,39.1,31.2,34.6,28.5,24.1,86,66,45,30.22,30.13,4,0,5,0.00